Flag for Thailand Weather past 2 weeks in Phuket, Thailand

77 °F


Feels Like: 78 °F
Forecast: 76 / 87 °F
Wind: No wind

Location: Phuket Airport

Current Time: Oct 7, 2015 at 1:53:53 AM

Latest Report: Oct 7, 2015 at 1:30 AM

Visibility: 2 mi

Pressure: 29.89 "Hg

Humidity: 94%

Dew point: 75 °F

Location of PhuketLocation

Historic Weather in Phuket — Graph


Phuket temperature yesterday

Maximum temperature yesterday: 88 °F (at 11:00 AM)
Minimum temperature yesterday: 77 °F (at 12:00 AM)
Average temperature yesterday: 80 °F

Past Weeks' High & Low Weather Summary

High88 °F (Sep 22, 10:30 AM)100% (Oct 4, 3:00 PM)29.98 "Hg (Oct 4, 3:00 PM)
Low-15 °F (Oct 4, 3:00 PM)58% (Oct 3, 3:00 PM)29.77 "Hg (Sep 22, 3:30 PM)
Average80 °F81%29.88 "Hg
* Reported Midnight between Sep 21 and Sep 22 — Oct 7 12:30 AM, Phuket, Weather by CustomWeather, © 2015

Note: Actual official high and low records may vary slightly from our data, if they occured in-between our weather recording intervals... More about our weather records


Phuket weather history for previous 24 hours

Time TempWeatherWind HumidityBarometerVisibility
12:30 AM
Wed, Oct 7
77 °FFog.No wind94%29.92 "Hg2 mi
12:00 AM79 °FFog.No wind89%29.92 "Hg2 mi
11:30 PM
Tue, Oct 6
79 °FFog.No wind89%29.95 "Hg2 mi
11:00 PM79 °FFog.No wind89%29.95 "Hg2 mi
10:30 PM79 °FFog.No wind89%29.95 "Hg2 mi
10:00 PM79 °FFog.No wind89%29.95 "Hg2 mi
9:30 PM79 °FFog.No wind89%29.95 "Hg2 mi
9:00 PM79 °FFog.No wind89%29.92 "Hg2 mi
8:30 PM79 °FFog.No wind89%29.92 "Hg2 mi
8:00 PM79 °FFog.No wind89%29.92 "Hg2 mi
7:30 PM79 °FFog.No wind89%29.89 "Hg2 mi
7:00 PM79 °FFog.No wind89%29.86 "Hg2 mi
6:30 PM79 °FFog.No wind89%29.86 "Hg2 mi
6:00 PM81 °FFog.No wind89%29.86 "Hg2 mi
5:30 PM82 °FFog.No wind79%29.83 "Hg2 mi
5:00 PM82 °FFog.No wind79%29.83 "Hg2 mi
4:30 PM81 °FFog.No wind84%29.83 "Hg2 mi
4:00 PM81 °FFog.5 mph84%29.83 "Hg2 mi
3:30 PM81 °FLight rain. Fog.6 mph84%29.83 "Hg2 mi
3:00 PM84 °FFog.10 mph70%29.86 "Hg3 mi
2:30 PM84 °FFog.12 mph74%29.86 "Hg3 mi
1:30 PM86 °FPartly sunny.6 mph66%29.89 "Hg3 mi
1:00 PM86 °FPartly sunny.6 mph62%29.89 "Hg3 mi
12:30 PM86 °FPartly sunny.6 mph62%29.92 "Hg3 mi
12:00 PM86 °FPartly sunny.7 mph62%29.95 "Hg3 mi
11:30 AM88 °FFog.8 mph62%29.95 "Hg3 mi
11:00 AM88 °FFog.5 mph62%29.95 "Hg3 mi
10:30 AM84 °FFog.6 mph70%29.95 "Hg2 mi
10:00 AM82 °FFog.No wind79%29.95 "Hg2 mi
9:30 AM82 °FFog.No wind79%29.95 "Hg1 mi
9:00 AM82 °FFog.3 mph79%29.95 "Hg1 mi
8:30 AM81 °FFog.3 mph84%29.95 "Hg1 mi
8:00 AM79 °FFog.2 mph94%29.92 "Hg1 mi
7:30 AM79 °FFog.1 mph89%29.92 "Hg1 mi
7:00 AM77 °FFog.2 mph94%29.92 "Hg1 mi
6:30 AM77 °FFog.2 mph94%29.89 "Hg1 mi
6:00 AM77 °FFog.3 mph94%29.89 "Hg1 mi
5:30 AM77 °FFog.2 mph89%29.89 "Hg1 mi
5:00 AM77 °FFog.No wind89%29.86 "Hg1 mi
4:00 AM77 °FFog.2 mph89%29.89 "Hg1 mi
3:00 AM77 °FFog.No wind94%29.89 "Hg1 mi
2:30 AM77 °FFog.2 mph94%29.89 "Hg1 mi
2:00 AM77 °FFog.No wind94%29.89 "Hg1 mi
1:00 AM77 °FFog.2 mph89%29.92 "Hg1 mi
Weather by CustomWeather, © 2015

See weather overviewHow to use our weather pages